TimeCDT,TemperatureF,Dew PointF,Humidity,Sea Level PressureIn,VisibilityMPH,Wind Direction,Wind SpeedMPH,Gust SpeedMPH,PrecipitationIn,Events,Conditions,WindDirDegrees,DateUTC
12:58 AM,68.2,65.5,91,29.97,10.0,SE,6.9,-,N/A,,Mostly Cloudy,140,2013-04-02 05:58:00
1:19 AM,68.0,66.2,94,29.97,10.0,SE,10.4,-,N/A,,Scattered Clouds,130,2013-04-02 06:19:00
1:47 AM,68.0,64.4,88,29.95,10.0,ESE,10.4,-,N/A,,Mostly Cloudy,110,2013-04-02 06:47:00
1:58 AM,67.3,65.3,93,29.93,10.0,ESE,9.2,-,N/A,,Mostly Cloudy,120,2013-04-02 06:58:00
2:19 AM,68.0,64.4,88,29.96,10.0,SE,8.1,-,N/A,,Overcast,140,2013-04-02 07:19:00
2:40 AM,66.2,64.4,94,29.93,10.0,ESE,10.4,-,N/A,,Mostly Cloudy,120,2013-04-02 07:40:00
2:58 AM,66.6,65.3,96,29.91,10.0,ESE,4.6,-,N/A,,Scattered Clouds,110,2013-04-02 07:58:00
3:12 AM,66.2,66.2,100,29.94,10.0,SE,2.3,-,N/A,,Mostly Cloudy,130,2013-04-02 08:12:00
3:58 AM,66.9,65.7,96,29.93,10.0,SSE,4.6,-,N/A,,Overcast,160,2013-04-02 08:58:00
4:26 AM,66.2,66.2,100,29.95,10.0,SSE,5.8,-,N/A,,Overcast,150,2013-04-02 09:26:00
4:54 AM,66.2,66.2,100,29.95,10.0,SSE,3.5,-,N/A,,Mostly Cloudy,160,2013-04-02 09:54:00
4:58 AM,66.4,66.0,99,29.94,10.0,SE,3.5,-,N/A,,Mostly Cloudy,140,2013-04-02 09:58:00
4:59 AM,66.2,66.2,100,29.96,10.0,SE,4.6,-,N/A,,Light Drizzle,140,2013-04-02 09:59:00
5:06 AM,66.2,66.2,100,29.96,9.0,SE,4.6,-,N/A,,Light Drizzle,130,2013-04-02 10:06:00
5:09 AM,66.2,66.2,100,29.96,10.0,ESE,3.5,-,N/A,,Mostly Cloudy,120,2013-04-02 10:09:00
5:23 AM,66.2,66.2,100,29.96,10.0,ENE,3.5,-,N/A,,Mostly Cloudy,70,2013-04-02 10:23:00
5:30 AM,66.2,66.2,100,29.96,10.0,ENE,4.6,-,N/A,,Partly Cloudy,70,2013-04-02 10:30:00
5:51 AM,66.2,66.2,100,29.96,9.0,East,5.8,-,N/A,,Scattered Clouds,80,2013-04-02 10:51:00
5:58 AM,65.7,65.7,100,29.94,9.0,East,5.8,-,0.00,,Partly Cloudy,80,2013-04-02 10:58:00
6:26 AM,66.2,66.2,100,29.96,8.0,East,9.2,-,N/A,,Partly Cloudy,80,2013-04-02 11:26:00
6:44 AM,66.2,66.2,100,29.96,8.0,ENE,8.1,-,N/A,,Overcast,70,2013-04-02 11:44:00
6:58 AM,65.3,65.3,100,29.94,8.0,East,6.9,-,N/A,,Overcast,80,2013-04-02 11:58:00
7:12 AM,64.4,64.4,100,29.97,7.0,East,6.9,-,N/A,,Overcast,80,2013-04-02 12:12:00
7:19 AM,64.4,64.4,100,29.97,1.5,East,6.9,-,N/A,,Overcast,80,2013-04-02 12:19:00
7:54 AM,64.4,64.4,100,29.97,1.8,East,8.1,-,N/A,,Mostly Cloudy,80,2013-04-02 12:54:00
7:58 AM,64.4,64.4,100,29.96,2.0,East,8.1,-,N/A,,Mostly Cloudy,80,2013-04-02 12:58:00
8:19 AM,66.2,66.2,100,29.98,2.0,East,8.1,-,N/A,,Mostly Cloudy,100,2013-04-02 13:19:00
8:40 AM,66.2,66.2,100,29.98,3.0,ESE,8.1,-,N/A,,Overcast,120,2013-04-02 13:40:00
8:54 AM,66.2,66.2,100,29.98,5.0,ESE,6.9,-,N/A,,Mostly Cloudy,120,2013-04-02 13:54:00
8:58 AM,66.2,66.2,100,29.96,5.0,ESE,8.1,-,N/A,,Mostly Cloudy,120,2013-04-02 13:58:00
9:12 AM,66.2,66.2,100,29.98,7.0,SE,8.1,-,N/A,,Mostly Cloudy,140,2013-04-02 14:12:00
9:26 AM,68.0,68.0,100,29.99,7.0,SE,9.2,-,N/A,,Mostly Cloudy,130,2013-04-02 14:26:00
9:38 AM,68.0,68.0,100,29.98,7.0,SSE,11.5,-,N/A,,Mostly Cloudy,150,2013-04-02 14:38:00
9:47 AM,69.8,68.0,94,29.98,7.0,SE,11.5,-,N/A,,Mostly Cloudy,140,2013-04-02 14:47:00
9:58 AM,71.2,67.8,89,29.96,7.0,ESE,10.4,-,N/A,,Mostly Cloudy,120,2013-04-02 14:58:00
10:32 AM,73.4,66.2,78,29.98,10.0,SE,13.8,-,N/A,,Mostly Cloudy,130,2013-04-02 15:32:00
10:58 AM,76.1,66.6,72,29.96,10.0,SSE,12.7,-,N/A,,Scattered Clouds,160,2013-04-02 15:58:00
11:41 AM,75.2,66.2,73,29.97,10.0,SSE,15.0,-,N/A,,Mostly Cloudy,160,2013-04-02 16:41:00
11:54 AM,75.2,66.2,73,29.96,10.0,SSE,17.3,-,N/A,,Mostly Cloudy,160,2013-04-02 16:54:00
11:58 AM,75.2,65.7,72,29.94,10.0,SSE,13.8,-,N/A,,Mostly Cloudy,160,2013-04-02 16:58:00
12:19 PM,77.0,64.4,65,29.95,10.0,SSE,16.1,20.7,N/A,,Clear,160,2013-04-02 17:19:00
12:28 PM,77.0,64.4,65,29.95,10.0,SE,13.8,20.7,N/A,,Scattered Clouds,140,2013-04-02 17:28:00
12:30 PM,77.0,64.4,65,29.95,10.0,SSE,16.1,-,N/A,,Overcast,160,2013-04-02 17:30:00
12:58 PM,75.9,64.9,69,29.92,10.0,SSE,13.8,-,N/A,,Overcast,150,2013-04-02 17:58:00
1:58 PM,75.7,64.9,69,29.91,10.0,SSE,12.7,-,N/A,,Overcast,160,2013-04-02 18:58:00
2:05 PM,75.2,64.4,69,29.91,10.0,South,15.0,-,N/A,,Scattered Clouds,170,2013-04-02 19:05:00
2:58 PM,76.1,65.1,69,29.86,10.0,SSE,12.7,-,N/A,,Overcast,150,2013-04-02 19:58:00
3:58 PM,77.9,65.5,65,29.83,10.0,South,11.5,-,N/A,,Mostly Cloudy,170,2013-04-02 20:58:00
4:58 PM,79.0,65.1,62,29.79,10.0,South,12.7,-,N/A,,Overcast,170,2013-04-02 21:58:00
5:58 PM,79.3,65.1,62,29.79,10.0,South,4.6,-,N/A,,Overcast,190,2013-04-02 22:58:00
6:58 PM,70.3,67.1,89,29.82,10.0,NNE,18.4,25.3,N/A,,Overcast,30,2013-04-02 23:58:00
7:58 PM,66.9,62.8,87,29.83,10.0,ENE,10.4,17.3,N/A,,Overcast,60,2013-04-03 00:58:00
8:58 PM,66.2,63.1,90,29.83,10.0,East,11.5,-,N/A,,Overcast,80,2013-04-03 01:58:00
9:58 PM,66.2,64.2,93,29.86,10.0,ENE,6.9,-,N/A,,Scattered Clouds,70,2013-04-03 02:58:00
10:58 PM,66.2,64.4,94,29.86,10.0,East,10.4,-,N/A,,Mostly Cloudy,90,2013-04-03 03:58:00
11:33 PM,66.2,64.4,94,30.00,10.0,WNW,21.9,-,N/A,Thunderstorm,Mostly Cloudy,290,2013-04-03 04:33:00
11:35 PM,66.2,64.4,94,30.02,6.0,WNW,40.3,51.8,N/A,Rain-Thunderstorm,Light Rain,290,2013-04-03 04:35:00
11:37 PM,66.2,62.6,88,30.03,1.8,WNW,39.1,55.2,N/A,Rain-Thunderstorm,Heavy Thunderstorms and Rain,300,2013-04-03 04:37:00
11:44 PM,59.0,57.2,94,30.01,0.5,WNW,17.3,55.2,N/A,Fog-Rain-Thunderstorm,Heavy Thunderstorms and Rain,300,2013-04-03 04:44:00
11:51 PM,57.2,57.2,100,29.96,1.0,NNW,15.0,-,N/A,Rain-Thunderstorm,Heavy Thunderstorms and Rain,340,2013-04-03 04:51:00
11:58 PM,57.2,57.2,100,29.94,2.5,North,9.2,-,0.52,Rain-Thunderstorm,Heavy Thunderstorms and Rain,360,2013-04-03 04:58:00